Regional Weather Roundup
Issued by NWS

Home | Current Version | Previous Version | Text Only | Print | Product List | Glossary Off
Versions: 1 2 3 4 5 6 7 8 9 10 11 12 13 14 15 16 17 18 19 20 21 22 23 24 25 26 27 28 29 30 31 32 33 34 35 36 37 38 39 40 41 42 43 44 45 46 47 48 49 50

000
ASUS45 KABQ 290201
RWRNM
WEATHER ROUNDUP FOR NEW MEXICO
NATIONAL WEATHER SERVICE ALBUQUERQUE NM
800 PM MDT MON JUL 28 2014

NOTE: "FAIR" MEANS FEW OR NO CLOUDS BELOW 12,000 FEET AGL WITH NO
       SIGNIFICANT WEATHER OR OBSTRUCTIONS TO VISION.

      THIS PRODUCT IS RELEASED AS TWO VERSIONS.  ONE VERSION NEAR
      THE TOP OF THE HOUR CONTAINING PRELIMINARY DATA FROM ALBUQUERQUE
      AND OTHER STATIONS.  A FINAL VERSION WITH ADDITIONAL DATA IS
      ISSUED ABOUT 10 MINUTES AFTER THE HOUR.

NMZ501-503-504-510>518-290300-
NORTHWEST PLATEAU/NORTHCENTRAL MOUNTAINS

CITY           SKY/WX    TMP DP  RH WIND       PRES   REMARKS
FARMINGTON     CLEAR     67  58  72 E7        30.30R
LOS ALAMOS     CLOUDY    69  51  52 SE7       30.44R
SANTA FE       MOCLDY    69  53  56 SW6       30.36R
TAOS           CLOUDY    66  52  59 N5        30.44R
ANGEL FIRE     FAIR      60  55  81 SW3       30.53R

$$
NMZ402-403-502-505>509-290300-
WESTCENTRAL MOUNTAINS/SOUTHWEST MOUNTAINS

CITY           SKY/WX    TMP DP  RH WIND       PRES   REMARKS
GALLUP         LGT RAIN  66  55  67 SE9       30.35F

$$
NMZ407-409-411-412-290300-
SOUTHERN DESERTS

CITY           SKY/WX    TMP DP  RH WIND       PRES   REMARKS
LORDSBURG      FAIR      81  61  50 CALM      30.16S
DEMING         PTCLDY    84  56  38 N7        30.16R
LAS CRUCES     CLOUDY    73  65  76 W16G23    30.21R THUNDER
HOLLOMAN AFB   MOCLDY    82  63  51 W8        30.16R
T OR C         PTCLDY    80  56  43 NW6       30.21S

$$
NMZ519>523-290300-
CENTRAL VALLEYS/CENTRAL HIGHLANDS

CITY           SKY/WX    TMP DP  RH WIND       PRES   REMARKS
ALBUQUERQUE    MOCLDY    76  54  46 SE18      30.28R
DOUBLE EAGLE   MOCLDY    73  55  53 W16G24    30.31R
CLINES CORNERS MOCLDY    69  53  56 S9        30.41R
BELEN          CLOUDY    79  53  41 W10       30.26R
SOCORRO        FAIR      79  53  39 S8        30.23R

$$
NMZ524>526-539-540-290300-
SOUTHCENTRAL MOUNTAINS

CITY           SKY/WX    TMP DP  RH WIND       PRES   REMARKS
RUIDOSO        NOT AVBL

$$
NMZ527>531-290300-
NORTHEAST HIGHLANDS/NORTHEAST PLAINS

CITY           SKY/WX    TMP DP  RH WIND       PRES   REMARKS
LAS VEGAS      PTCLDY    67  57  70 SE14      30.41R
RATON          CLOUDY    67  61  81 S5        30.39R
CLAYTON        MOCLDY    69  63  81 SE7       30.32R

$$
NMZ532>537-290300-
EASTCENTRAL PLAINS

CITY           SKY/WX    TMP DP  RH WIND       PRES   REMARKS
TUCUMCARI      CLOUDY    78  55  44 S7        30.24S
CANNON AFB     CLOUDY    76  62  61 E9        30.28R
CLOVIS AIRPORT CLOUDY    73  63  68 E8        30.31

$$
NMZ028-029-538-290300-
SOUTHEAST PLAINS

CITY           SKY/WX    TMP DP  RH WIND       PRES   REMARKS
ROSWELL        CLOUDY    89  56  32 SE13      30.15S
ARTESIA        PTCLDY    88  57  35 E15       30.14R
CARLSBAD       MOCLDY    92  56  29 E15G23    30.10R
HOBBS          PTCLDY    84  59  42 E18G25    30.19S


$$


USA.gov is the U.S. government's official web portal to all federal, state and local government web resources and services.